Lid_Strength_Index
2 2 2 2 2 2 2 2 2 1 1 1 0 0 1 1 1 1 1 2 2 2
2 2 2 2 1 1 1 1 1 1 1 1 1 1 1 2 2 1 1 1 1 2
2 1 2 1 2 1 1 1 1 1 1 1 1 1 1 1 1 1 1 1 2 2
2 2 1 2 2 2 1 1 1 1 1 1 1 1 1 1 1 2 2 1 2 2
2 2 2 2 2 1 2 1 1 1 1 1 1 1 1 2 2 2 2 2 2 3
3 2 2 2 2 1 1 1 1 1 1 1 1 1 1 1 2 2 2 2 2 2
3 3 3 2 2 1 1 1 1 1 1 1 1 1 1 1 2 2 2 2 2 2
2 2 2 2 2 1 1 1 1 1 1 1 1 1 1 1 2 2 2 2 2 2
3 2 2 2 2 2 2 1 1 2 2 2 1 4 6 6 2 2 2 2 2 2
2 2 2 2 3 3 3 3 2 2 1 2 1 6 7 7 4 2 2 2 2 3
3 3 3 3 2 3 3 2 2 2 2 2 2 7 8 7 5 2 2 2 2 3
2 3 3 3 3 3 3 2 2 2 2 2 2 7 8 9 5 2 2 2 2 2
2 3 3 3 4 3 3 2 2 2 2 3 2 6 8 9 4 3 2 2 4 8
3 3 3 4 4 4 4 2 2 2 2 2 2 2 8 12 4 2 3 4 5 6